Location: Arclight Observatory
(36.5667°N, 87.3333°W)
Time: 06:53:49
(UTC-06:00)

Hubble Space Telescope - Visible Passes

Search period start: 07 February 2016 00:00
Search period end: 17 February 2016 00:00
Orbit: 540 x 544 km, 28.5° (Epoch: 06 February)

Date Brightness Start Highest point End Pass type
(mag) Time Alt. Az. Time Alt. Az. Time Alt. Az.
09 Feb 3.5 19:26:10 10° S 19:26:14 10° S 19:26:14 10° S visible
10 Feb 3.1 19:16:03 10° SSW 19:17:32 14° S 19:17:32 14° S visible
11 Feb 2.7 19:06:08 10° SSW 19:08:47 17° SSE 19:08:47 17° SSE visible
12 Feb 2.5 18:56:22 10° SW 18:59:25 20° SSE 19:00:00 19° SSE visible
13 Feb 2.4 18:46:39 10° SW 18:49:54 22° S 18:51:13 19° SE visible
14 Feb 2.4 18:37:01 10° SW 18:40:23 24° S 18:42:24 17° SE visible
14 Feb 3.9 20:17:44 10° WSW 20:17:49 10° WSW 20:17:49 10° WSW visible
15 Feb 2.4 18:27:26 10° SW 18:30:53 25° S 18:33:35 14° SE visible
15 Feb 3.6 20:08:20 10° WSW 20:09:00 13° SW 20:09:00 13° SW visible
16 Feb 2.3 18:17:53 10° SW 18:21:23 26° S 18:24:46 11° ESE visible
16 Feb 3.4 19:58:57 10° WSW 20:00:11 16° SW 20:00:11 16° SW visible
